Вернуться в каталог

STARLINK-34863

АктивенСвязьVLEO
NORAD 66190·PAYLOAD·🇺🇸 United States

Запущен Oct 26, 2025 с Cape Canaveral Space Force Station

Loading…

Ближайшие Пролёты (ближайшие 24 часа)

TLE

СвежийSource: CelesTrak SupGP

Эпоха: Sep 14, 2026, 15:44 UTC

1 66190C 25243P   26257.65604167 -.00039427  00000+0 -11647-2 0  2579
2 66190  53.1583  85.3327 0001310  90.2441   6.3969 15.34414764    15

Отслеживайте STARLINK-34863 в реальном времени с AllMySat

Download on the App Store